Time,TemperatureF,DewpointF,PressureIn,WindDirection,WindDirectionDegrees,WindSpeedMPH,WindSpeedGustMPH,Humidity,HourlyPrecipIn,Conditions,Clouds,dailyrainin,SoftwareType,DateUTC
2013-09-01 00:00:00,60.0,54.0,-100.00,North,354,4.0,-999.0,81,0.00,,,-99.99,,2013-09-01 07:00:00,
2013-09-01 00:42:00,60.0,54.0,-100.00,North,354,4.0,-999.0,81,0.00,,,-99.99,,2013-09-01 07:42:00,
2013-09-01 00:52:00,60.0,54.0,-100.00,North,354,4.0,-999.0,81,0.00,,,-99.99,,2013-09-01 07:52:00,
2013-09-01 01:00:00,58.0,53.0,-100.00,North,349,3.0,-999.0,85,0.00,,,-99.99,,2013-09-01 08:00:00,
2013-09-01 01:43:00,58.0,53.0,-100.00,North,349,3.0,-999.0,85,0.00,,,-99.99,,2013-09-01 08:43:00,
2013-09-01 01:52:00,58.0,53.0,-100.00,North,349,3.0,-999.0,85,0.00,,,-99.99,,2013-09-01 08:52:00,
2013-09-01 02:00:00,56.0,53.0,-100.00,North,351,2.0,-999.0,88,0.00,,,-99.99,,2013-09-01 09:00:00,
2013-09-01 02:43:00,56.0,53.0,-100.00,North,351,2.0,-999.0,88,0.00,,,-99.99,,2013-09-01 09:43:00,
2013-09-01 02:53:00,56.0,53.0,-100.00,North,351,2.0,-999.0,88,0.00,,,-99.99,,2013-09-01 09:53:00,
2013-09-01 03:00:00,55.0,52.0,-100.00,NNW,345,2.0,-999.0,90,0.00,,,-99.99,,2013-09-01 10:00:00,
2013-09-01 03:42:00,55.0,52.0,-100.00,NNW,345,2.0,-999.0,90,0.00,,,-99.99,,2013-09-01 10:42:00,
2013-09-01 03:53:00,55.0,52.0,-100.00,NNW,345,2.0,-999.0,90,0.00,,,-99.99,,2013-09-01 10:53:00,
2013-09-01 04:00:00,54.0,51.0,-100.00,South,170,1.0,-999.0,92,0.00,,,-99.99,,2013-09-01 11:00:00,
2013-09-01 04:42:00,54.0,51.0,-100.00,South,170,1.0,-999.0,92,0.00,,,-99.99,,2013-09-01 11:42:00,
2013-09-01 04:52:00,54.0,51.0,-100.00,South,170,1.0,-999.0,92,0.00,,,-99.99,,2013-09-01 11:52:00,
2013-09-01 05:00:00,53.0,51.0,-100.00,SSE,166,1.0,-999.0,92,0.00,,,-99.99,,2013-09-01 12:00:00,
2013-09-01 05:42:00,53.0,51.0,-100.00,SSE,166,1.0,-999.0,92,0.00,,,-99.99,,2013-09-01 12:42:00,
2013-09-01 05:52:00,53.0,51.0,-100.00,SSE,166,1.0,-999.0,92,0.00,,,-99.99,,2013-09-01 12:52:00,
2013-09-01 06:00:00,52.0,50.0,-100.00,SE,129,3.0,-999.0,93,0.00,,,-99.99,,2013-09-01 13:00:00,
2013-09-01 06:42:00,52.0,50.0,-100.00,SE,129,3.0,-999.0,93,0.00,,,-99.99,,2013-09-01 13:42:00,
2013-09-01 06:52:00,52.0,50.0,-100.00,SE,129,3.0,-999.0,93,0.00,,,-99.99,,2013-09-01 13:52:00,
2013-09-01 07:00:00,51.0,49.0,-100.00,South,177,2.0,-999.0,93,0.00,,,-99.99,,2013-09-01 14:00:00,
2013-09-01 07:42:00,51.0,49.0,-100.00,South,177,2.0,-999.0,93,0.00,,,-99.99,,2013-09-01 14:42:00,
2013-09-01 07:52:00,51.0,49.0,-100.00,South,177,2.0,-999.0,93,0.00,,,-99.99,,2013-09-01 14:52:00,
2013-09-01 08:00:00,52.0,50.0,-100.00,SE,143,2.0,-999.0,94,0.00,,,-99.99,,2013-09-01 15:00:00,
2013-09-01 08:45:00,52.0,50.0,-100.00,SE,143,2.0,-999.0,94,0.00,,,-99.99,,2013-09-01 15:45:00,
2013-09-01 08:55:00,52.0,50.0,-100.00,SE,143,2.0,-999.0,94,0.00,,,-99.99,,2013-09-01 15:55:00,
2013-09-01 09:00:00,53.0,50.0,-100.00,South,172,2.0,-999.0,88,0.00,,,-99.99,,2013-09-01 16:00:00,
2013-09-01 09:43:00,53.0,50.0,-100.00,South,172,2.0,-999.0,88,0.00,,,-99.99,,2013-09-01 16:43:00,
2013-09-01 09:53:00,53.0,50.0,-100.00,South,172,2.0,-999.0,88,0.00,,,-99.99,,2013-09-01 16:53:00,
2013-09-01 10:00:00,62.0,52.0,-100.00,SSW,207,1.0,-999.0,69,0.00,,,-99.99,,2013-09-01 17:00:00,
2013-09-01 10:42:00,62.0,52.0,-100.00,SSW,207,1.0,-999.0,69,0.00,,,-99.99,,2013-09-01 17:42:00,
2013-09-01 10:52:00,62.0,52.0,-100.00,SSW,207,1.0,-999.0,69,0.00,,,-99.99,,2013-09-01 17:52:00,
2013-09-01 11:00:00,71.0,52.0,-100.00,NW,318,2.0,-999.0,50,0.00,,,-99.99,,2013-09-01 18:00:00,
2013-09-01 11:42:00,71.0,52.0,-100.00,NW,318,2.0,-999.0,50,0.00,,,-99.99,,2013-09-01 18:42:00,
2013-09-01 11:52:00,71.0,52.0,-100.00,NW,318,2.0,-999.0,50,0.00,,,-99.99,,2013-09-01 18:52:00,
2013-09-01 12:00:00,76.0,51.0,-100.00,South,169,2.0,-999.0,41,0.00,,,-99.99,,2013-09-01 19:00:00,
2013-09-01 12:42:00,76.0,51.0,-100.00,South,169,2.0,-999.0,41,0.00,,,-99.99,,2013-09-01 19:42:00,
2013-09-01 12:52:00,76.0,51.0,-100.00,South,169,2.0,-999.0,41,0.00,,,-99.99,,2013-09-01 19:52:00,
2013-09-01 13:00:00,78.0,51.0,-100.00,NNW,345,4.0,-999.0,39,0.00,,,-99.99,,2013-09-01 20:00:00,
2013-09-01 13:42:00,78.0,51.0,-100.00,NNW,345,4.0,-999.0,39,0.00,,,-99.99,,2013-09-01 20:42:00,
2013-09-01 13:52:00,78.0,51.0,-100.00,NNW,345,4.0,-999.0,39,0.00,,,-99.99,,2013-09-01 20:52:00,
2013-09-01 14:00:00,77.0,51.0,-100.00,NW,325,7.0,-999.0,39,0.00,,,-99.99,,2013-09-01 21:00:00,
2013-09-01 14:44:00,77.0,51.0,-100.00,NW,325,7.0,-999.0,39,0.00,,,-99.99,,2013-09-01 21:44:00,
2013-09-01 14:55:00,77.0,51.0,-100.00,NW,325,7.0,-999.0,39,0.00,,,-99.99,,2013-09-01 21:55:00,
2013-09-01 15:00:00,71.0,52.0,-100.00,NW,324,5.0,-999.0,52,0.00,,,-99.99,,2013-09-01 22:00:00,
2013-09-01 15:43:00,71.0,52.0,-100.00,NW,324,5.0,-999.0,52,0.00,,,-99.99,,2013-09-01 22:43:00,
2013-09-01 15:53:00,71.0,52.0,-100.00,NW,324,5.0,-999.0,52,0.00,,,-99.99,,2013-09-01 22:53:00,
2013-09-01 16:00:00,74.0,53.0,-100.00,North,352,6.0,-999.0,47,0.00,,,-99.99,,2013-09-01 23:00:00,
2013-09-01 16:42:00,74.0,53.0,-100.00,North,352,6.0,-999.0,47,0.00,,,-99.99,,2013-09-01 23:42:00,
2013-09-01 16:53:00,74.0,53.0,-100.00,North,352,6.0,-999.0,47,0.00,,,-99.99,,2013-09-01 23:53:00,
2013-09-01 17:00:00,71.0,55.0,-100.00,NNW,334,8.0,-999.0,56,0.00,,,-99.99,,2013-09-02 00:00:00,
2013-09-01 17:42:00,71.0,55.0,-100.00,NNW,334,8.0,-999.0,56,0.00,,,-99.99,,2013-09-02 00:42:00,
2013-09-01 17:52:00,71.0,55.0,-100.00,NNW,334,8.0,-999.0,56,0.00,,,-99.99,,2013-09-02 00:52:00,
2013-09-01 18:00:00,70.0,56.0,-100.00,NW,324,7.0,-999.0,62,0.00,,,-99.99,,2013-09-02 01:00:00,
2013-09-01 18:42:00,70.0,56.0,-100.00,NW,324,7.0,-999.0,62,0.00,,,-99.99,,2013-09-02 01:42:00,
2013-09-01 18:52:00,70.0,56.0,-100.00,NW,324,7.0,-999.0,62,0.00,,,-99.99,,2013-09-02 01:52:00,
2013-09-01 19:00:00,67.0,58.0,-100.00,NW,324,4.0,-999.0,71,0.00,,,-99.99,,2013-09-02 02:00:00,
2013-09-01 19:42:00,67.0,58.0,-100.00,NW,324,4.0,-999.0,71,0.00,,,-99.99,,2013-09-02 02:42:00,
2013-09-01 19:52:00,67.0,58.0,-100.00,NW,324,4.0,-999.0,71,0.00,,,-99.99,,2013-09-02 02:52:00,
2013-09-01 20:00:00,65.0,58.0,-100.00,NW,309,4.0,-999.0,76,0.00,,,-99.99,,2013-09-02 03:00:00,
2013-09-01 20:44:00,65.0,58.0,-100.00,NW,309,4.0,-999.0,76,0.00,,,-99.99,,2013-09-02 03:44:00,
2013-09-01 20:56:00,65.0,58.0,-100.00,NW,309,4.0,-999.0,76,0.00,,,-99.99,,2013-09-02 03:56:00,
2013-09-01 21:00:00,63.0,58.0,-100.00,NNW,339,1.0,-999.0,81,0.00,,,-99.99,,2013-09-02 04:00:00,
2013-09-01 21:44:00,63.0,58.0,-100.00,NNW,339,1.0,-999.0,81,0.00,,,-99.99,,2013-09-02 04:44:00,
2013-09-01 21:54:00,63.0,58.0,-100.00,NNW,339,1.0,-999.0,81,0.00,,,-99.99,,2013-09-02 04:54:00,
2013-09-01 22:00:00,62.0,58.0,-100.00,North,0,2.0,-999.0,85,0.00,,,-99.99,,2013-09-02 05:00:00,
2013-09-01 22:44:00,62.0,58.0,-100.00,North,0,2.0,-999.0,85,0.00,,,-99.99,,2013-09-02 05:44:00,
2013-09-01 22:52:00,62.0,58.0,-100.00,North,0,2.0,-999.0,85,0.00,,,-99.99,,2013-09-02 05:52:00,
2013-09-01 23:00:00,60.0,57.0,-100.00,North,353,1.0,-999.0,88,0.00,,,-99.99,,2013-09-02 06:00:00,
2013-09-01 23:43:00,60.0,57.0,-100.00,North,353,1.0,-999.0,88,0.00,,,-99.99,,2013-09-02 06:43:00,
2013-09-01 23:52:00,60.0,57.0,-100.00,North,353,1.0,-999.0,88,0.00,,,-99.99,,2013-09-02 06:52:00,